This is the latest recevied weather packets stored in our database for station/object NC4M. If no packets are shown the sender has not sent any weather packets the latest 10 day(s).
| Time | Temp. | Humidity | Pressure | Rain* | Wind** | Luminosity | Snow |
|---|---|---|---|---|---|---|---|
| 1787673852 | 29.44° C | 62% | 1018.8 hPa | 0 mm | - | 701 W/m² | - |
| 1787673547 | 28.89° C | 60% | 1018.5 hPa | 0 mm | - | 661 W/m² | - |
| 1787673246 | 28.89° C | 61% | 1018.3 hPa | 0 mm | - | 637 W/m² | - |
| 1787672947 | 28.33° C | 61% | 1018.5 hPa | 0 mm | - | 323 W/m² | - |
| 1787672642 | 28.33° C | 61% | 1018.6 hPa | 0 mm | - | 118 W/m² | - |
| 1787672341 | 27.78° C | 63% | 1018.6 hPa | 0 mm | - | 107 W/m² | - |
| 1787672036 | 27.78° C | 67% | 1018.5 hPa | 0 mm | - | 109 W/m² | - |
| 1787671731 | 27.22° C | 66% | 1018.7 hPa | 0 mm | - | 108 W/m² | - |
| 1787671431 | 27.22° C | 67% | 1018.5 hPa | 0 mm | - | 125 W/m² | - |
| 1787671126 | 27.22° C | 63% | 1018.6 hPa | 0 mm | - | 122 W/m² | - |
| 1787670822 | 26.67° C | 67% | 1018.5 hPa | 0 mm | - | 107 W/m² | - |
| 1787670522 | 26.67° C | 62% | 1018.3 hPa | 0 mm | - | 101 W/m² | - |
| 1787670216 | 26.67° C | 67% | 1018.5 hPa | 0 mm | - | 127 W/m² | - |
| 1787669916 | 26.11° C | 67% | 1018.3 hPa | 0 mm | - | 101 W/m² | - |
| 1787669611 | 26.11° C | 72% | 1018.3 hPa | 0 mm | - | 88 W/m² | - |
| 1787669306 | 25.56° C | 71% | 1018.4 hPa | 0 mm | - | 79 W/m² | - |
| 1787669002 | 25.56° C | 72% | 1018.2 hPa | 0 mm | - | 68 W/m² | - |
| 1787668698 | 25.56° C | 70% | 1018.2 hPa | 0 mm | - | 68 W/m² | - |
| 1787668394 | 25° C | 72% | 1018.1 hPa | 0 mm | - | 64 W/m² | - |
| 1787668094 | 25° C | 76% | 1018.1 hPa | 0 mm | - | 63 W/m² | - |
| 1787667789 | 24.44° C | 75% | 1018.1 hPa | 0 mm | - | 62 W/m² | - |
| 1787667485 | 24.44° C | 76% | 1018.2 hPa | 0 mm | - | 61 W/m² | - |
| 1787667181 | 23.89° C | 75% | 1018 hPa | 0 mm | - | 61 W/m² | - |
| 1787666874 | 23.89° C | 75% | 1018.1 hPa | 0 mm | - | 58 W/m² | - |
| 1787666572 | 23.89° C | 76% | 1018.1 hPa | 0 mm | - | 56 W/m² | - |
* Rain latest hour (hover to see other rain measurements)
** Current wind speed in m/s (hover to see current wind gust speed)